Погода в Одессе

США     31°51′38″N   102°26′26″W
темп.,
°C
ветер,
м/с
пор.,
м/с
влажн.,
%
обл.,
%
осадки,
мм/ч
давл.,
гПа
погр.,
м
8 мая, сб
сб801:00+23ю1016281 0.0 1011555
04:00+20ююв814390 0.0 1009288
07:00+18ю611515 0.0 1009196
10:00+23ююз564465 0.0 1009344
13:00+30зюз68250 0.0 10071496
16:00+35з1014961 0.0 10024911
19:00+33з121350 0.0 10023421
22:00+26зсз61280 0.0 1004149
9 мая, вс
вс901:00+24юз44110 0.0 100629
04:00+21юз56130 0.0 100657
07:00+19з56140 0.0 100859
10:00+22св76350 0.0 1010603
13:00+26всв32290 0.0 10101395
16:00+29всв13202 0.0 10072736
19:00+29ссз14145 0.0 10062418
22:00+23в813386 0.0 1008263
10 мая, пн
пн1001:00+20в813555 0.0 1010368
04:00+17в710743 0.0 1011374
07:00+15в688899 0.0 1014392
10:00+17в767591 0.0 1014581
13:00+23в54505 0.0 1012896
16:00+28юв45298 0.0 10092047
19:00+28в97316 0.0 10071390
22:00+21в1013630 0.2 1009536
11 мая, вт
вт1101:00+17вюв71389100 1.1 1012690
04:00+18ююв914864 1.1 1010508
07:00+17ю7139075 1.1 1011504
10:00+22ю77695 0.0 1011649
13:00+29зюз34280 0.0 10091379
16:00+32зюз47100 0.0 10063611
19:00+32з5780 0.0 10063404
22:00+24в79520 0.1 1010232
12 мая, ср
ср1201:00+15св121490100 1.1 1016573
04:00+13св111490100 0.4 1018564
07:00+12св111388100 0.8 1021589
10:00+11св101185100 0.4 1024529
13:00+13св897797 0.6 1024553
16:00+16св666786 0.0 1022796
19:00+16всв666796 0.0 1022907
22:00+14всв7775100 0.0 1024681